FW8537 Weather Reports


Display with metric or nautical units.
time (UTC)temp
F
wind
direction
speed
MPH
gust
MPH
rain 1hr
in
rain 24hr
in
rain mn
in
humidity
%
barometer
mb
20260831053530 78 107 0.0 1.0 0.00 0.11 0.00 91 1013.1
20260831053030 78 107 0.0 2.0 0.00 0.11 0.00 91 1013.5
20260831053016 78 104 0.0 2.0 0.00 0.11 0.00 91 1013.3
20260831052530 78 101 1.0 5.0 0.00 0.11 0.00 91 1013.5
20260831052030 78 115 2.0 5.0 0.00 0.11 0.00 91 1013.5
20260831051530 78 82 2.0 5.0 0.00 0.11 0.00 91 1013.4
20260831051504 78 82 1.0 5.0 0.00 0.11 0.00 91 1013.3
20260831051030 78 92 1.0 5.0 0.00 0.11 0.00 92 1013.4
20260831050529 78 76 1.0 5.0 0.00 0.11 0.00 92 1013.4
20260831050052 77 101 0.0 0.0 0.00 0.11 0.00 92 1013.3
20260831050030 78 96 0.0 0.0 0.00 0.11 0.00 92 1013.5
20260831045822 77 23 0.0 0.0 0.00 0.11 0.00 91 1013.5
20260831045030 77 23 0.0 0.0 0.00 0.11 0.00 91 1013.5
20260831044535 77 23 0.0 0.0 0.00 0.11 0.00 91 1013.4
20260831044531 77 23 0.0 0.0 0.00 0.11 0.00 91 1013.5
20260831044030 77 23 0.0 0.0 0.00 0.11 0.00 91 1013.5
20260831043612 77 23 0.0 0.0 0.00 0.11 0.00 91 1013.6
20260831043556 77 23 0.0 0.0 0.00 0.11 0.00 91 1013.5
20260831042536 77 23 0.0 0.0 0.00 0.11 0.00 91 1013.6
20260831042030 77 23 0.0 0.0 0.00 0.11 0.00 91 1013.6
20260831041639 77 23 0.0 0.0 0.00 0.11 0.00 91 1013.5
20260831041032 77 23 0.0 0.0 0.00 0.11 0.00 91 1013.6
20260831040530 78 23 0.0 0.0 0.00 0.11 0.00 91 1013.6
20260831040030 78 23 0.0 0.0 0.00 0.11 0.00 91 1013.7
20260831040018 77 23 0.0 0.0 0.00 0.11 0.11 91 1013.6
20260831035527 78 23 0.0 0.0 0.00 0.11 0.11 91 1013.7
20260831035025 78 23 0.0 0.0 0.00 0.11 0.11 91 1013.7
20260831034524 78 23 0.0 0.0 0.00 0.11 0.11 91 1013.8
20260831034505 77 23 0.0 0.0 0.00 0.11 0.11 91 1013.7
20260831034021 78 23 0.0 0.0 0.00 0.11 0.11 91 1013.8
20260831033624 78 23 0.0 0.0 0.00 0.11 0.11 91 1013.8
20260831033552 78 23 0.0 0.0 0.00 0.11 0.11 91 1013.8
20260831032520 77 23 0.0 0.0 0.00 0.11 0.11 90 1013.8
20260831032018 78 23 0.0 0.0 0.00 0.11 0.11 90 1013.8
20260831031805 78 23 0.0 0.0 0.00 0.11 0.11 90 1013.6
20260831031014 78 23 0.0 0.0 0.00 0.11 0.11 90 1013.6
20260831030505 78 23 0.0 0.0 0.00 0.11 0.11 90 1013.6
20260831030018 77 23 0.0 0.0 0.00 0.11 0.11 90 1013.5
20260831030004 78 23 0.0 0.0 0.00 0.11 0.11 90 1013.6
20260831025502 78 23 0.0 0.0 0.00 0.11 0.11 90 1013.6
20260831025002 78 23 0.0 0.0 0.00 0.11 0.11 90 1013.6
20260831024747 78 23 0.0 0.0 0.00 0.11 0.11 90 1013.6
20260831024004 78 23 0.0 0.0 0.00 0.11 0.11 90 1013.6
20260831023501 78 23 0.0 0.0 0.00 0.11 0.11 90 1013.6
20260831023044 78 23 0.0 0.0 0.00 0.11 0.11 90 1013.4
20260831023002 78 23 0.0 1.0 0.00 0.11 0.11 90 1013.6
20260831022751 78 23 0.0 1.0 0.00 0.11 0.11 90 1013.6
20260831022003 78 23 0.0 1.0 0.00 0.11 0.11 89 1013.6
20260831021751 78 23 0.0 1.0 0.00 0.11 0.11 89 1013.6
20260831021251 78 23 0.0 1.0 0.00 0.11 0.11 89 1013.6
20260831020502 78 23 0.0 1.0 0.00 0.11 0.11 89 1013.6
20260831020021 78 23 0.0 1.0 0.00 0.11 0.11 89 1013.4
20260831020001 78 23 0.0 1.0 0.00 0.11 0.11 89 1013.6
20260831015500 78 23 0.0 1.0 0.00 0.11 0.11 89 1013.6
20260831015004 79 24 0.0 1.0 0.00 0.11 0.11 89 1013.6
20260831014508 78 24 0.0 2.0 0.00 0.11 0.11 89 1013.5
20260831014503 79 24 0.0 2.0 0.00 0.11 0.11 89 1013.6
20260831014248 79 24 0.0 2.0 0.00 0.11 0.11 89 1013.6
20260831013748 79 61 0.0 1.0 0.00 0.11 0.11 89 1013.6
20260831013008 78 61 0.0 1.0 0.00 0.11 0.11 89 1013.6
20260831013003 79 61 0.0 1.0 0.00 0.11 0.11 89 1013.7
20260831012503 79 61 0.0 1.0 0.00 0.11 0.11 89 1013.7
20260831012004 79 61 0.0 1.0 0.00 0.11 0.11 89 1013.7
20260831011750 79 61 0.0 1.0 0.00 0.11 0.11 88 1013.7
20260831011004 79 61 0.0 0.0 0.00 0.11 0.11 88 1013.7
20260831010504 79 64 0.0 1.0 0.00 0.11 0.11 88 1013.7
20260831010008 79 94 0.0 1.0 0.00 0.11 0.11 88 1013.6
20260831010004 79 94 0.0 1.0 0.00 0.11 0.11 88 1013.5
20260831005746 79 98 0.0 1.0 0.00 0.11 0.11 88 1013.6
20260831005001 80 98 0.0 1.0 0.00 0.11 0.11 88 1013.6
20260831004547 79 98 0.0 1.0 0.00 0.11 0.11 88 1013.4
20260831004503 80 98 0.0 1.0 0.00 0.11 0.11 88 1013.5
20260831004002 80 98 0.0 1.0 0.00 0.11 0.11 88 1013.5
20260831003501 80 98 1.0 2.0 0.00 0.11 0.11 87 1013.5
20260831003034 80 98 1.0 2.0 0.00 0.11 0.11 88 1013.4
20260831003001 80 98 1.0 2.0 0.00 0.11 0.11 88 1013.6
20260831002502 80 85 1.0 3.0 0.00 0.11 0.11 87 1013.6
20260831002001 80 97 1.0 3.0 0.00 0.11 0.11 87 1013.6
20260831001531 80 88 1.0 3.0 0.00 0.11 0.11 87 1013.3
20260831001502 80 92 1.0 2.0 0.00 0.11 0.11 87 1013.4
20260831001048 81 78 1.0 2.0 0.00 0.11 0.11 87 1013.4
20260831001033 81 96 1.0 2.0 0.00 0.11 0.11 87 1013.4
20260831000012 80 88 0.0 2.0 0.00 0.11 0.11 87 1013.0
20260831000002 81 88 1.0 2.0 0.00 0.11 0.11 87 1013.1
20260830235502 81 89 1.0 5.0 0.00 0.11 0.11 87 1013.1
20260830235005 81 95 1.0 5.0 0.00 0.11 0.11 87 1013.1
20260830234508 81 88 1.0 3.0 0.00 0.11 0.11 87 1013.0
20260830234502 81 88 1.0 3.0 0.00 0.11 0.11 87 1013.1
20260830234002 81 80 1.0 3.0 0.00 0.11 0.11 87 1013.1
20260830233502 81 75 1.0 3.0 0.00 0.11 0.11 86 1013.1
20260830233010 81 102 1.0 2.0 0.00 0.11 0.11 87 1012.6
20260830233005 82 102 1.0 2.0 0.00 0.11 0.11 87 1012.7
20260830232503 82 98 1.0 2.0 0.00 0.11 0.11 87 1012.7
20260830232002 82 86 1.0 6.0 0.00 0.11 0.11 86 1012.7
20260830231751 82 84 3.0 6.0 0.00 0.11 0.11 86 1012.6
20260830231003 82 108 3.0 6.0 0.00 0.11 0.11 86 1012.6
20260830230503 82 132 3.0 6.0 0.00 0.11 0.11 86 1012.6
20260830230009 82 92 2.0 4.0 0.00 0.13 0.11 86 1012.5
20260830230003 82 105 2.0 5.0 0.00 0.11 0.11 86 1012.6
20260830225503 82 79 2.0 5.0 0.00 0.11 0.11 85 1012.6
20260830225003 82 84 2.0 5.0 0.00 0.11 0.11 85 1012.6
20260830224509 82 87 1.0 5.0 0.00 0.13 0.11 85 1012.8
20260830224504 82 87 3.0 6.0 0.00 0.12 0.11 85 1012.9
20260830224002 83 88 3.0 6.0 0.00 0.12 0.11 85 1012.9
20260830223503 83 83 3.0 6.0 0.00 0.12 0.11 85 1012.9
20260830223007 82 76 1.0 8.0 0.00 0.13 0.11 85 1012.9
20260830223002 83 76 3.0 8.0 0.00 0.12 0.11 85 1013.0
20260830222830 83 82 4.0 8.0 0.00 0.13 0.11 85 1013.0
20260830222004 83 82 3.0 7.0 0.00 0.13 0.11 85 1013.0
20260830221512 83 107 2.0 8.0 0.00 0.13 0.11 84 1012.9
20260830221503 83 107 3.0 8.0 0.00 0.13 0.11 84 1013.0
20260830221002 84 86 3.0 8.0 0.00 0.13 0.11 84 1013.0
20260830220502 84 80 2.0 6.0 0.00 0.13 0.11 85 1013.0
20260830220008 84 96 2.0 6.0 0.00 0.14 0.11 84 1012.8
20260830220003 84 96 3.0 6.0 0.00 0.13 0.11 84 1012.9
20260830215756 84 76 3.0 8.0 0.00 0.13 0.11 84 1012.9
20260830215005 84 78 3.0 8.0 0.00 0.14 0.11 82 1012.9
20260830214506 84 84 3.0 7.0 0.00 0.14 0.11 82 1012.4
20260830214502 85 84 3.0 7.0 0.00 0.14 0.11 82 1012.6
20260830214003 85 68 3.0 8.0 0.00 0.14 0.11 83 1012.6
20260830213504 86 105 3.0 8.0 0.00 0.14 0.11 81 1012.6
20260830213012 85 126 3.0 8.0 0.00 0.14 0.11 79 1012.4
20260830213003 86 126 4.0 9.0 0.00 0.14 0.11 79 1012.6
20260830212504 86 130 6.0 9.0 0.00 0.14 0.11 78 1012.6
20260830212002 86 134 6.0 10.0 0.00 0.14 0.11 78 1012.6
20260830211754 86 82 5.0 10.0 0.00 0.14 0.11 78 1012.7
20260830211004 86 122 6.0 11.0 0.00 0.14 0.11 78 1012.7
20260830210502 86 94 5.0 11.0 0.00 0.14 0.11 78 1012.7
20260830210018 86 134 4.0 10.0 0.00 0.18 0.11 79 1012.7
20260830210002 86 134 5.0 10.0 0.00 0.14 0.11 79 1012.8
20260830205548 86 79 6.0 9.0 0.00 0.15 0.11 79 1012.8
20260830205535 86 128 6.0 9.0 0.00 0.15 0.11 79 1012.8
20260830204508 86 89 5.0 9.0 0.00 0.18 0.11 78 1012.5
20260830204503 86 98 5.0 9.0 0.00 0.16 0.11 78 1012.6
20260830204002 87 105 4.0 10.0 0.00 0.16 0.11 79 1012.6
20260830203756 87 67 4.0 10.0 0.00 0.16 0.11 79 1012.6
20260830203009 86 76 2.0 7.0 0.00 0.18 0.11 78 1012.9
20260830203003 86 76 3.0 7.0 0.00 0.17 0.11 78 1013.0
20260830202504 86 87 3.0 9.0 0.00 0.17 0.11 79 1013.0
20260830202004 86 110 3.0 9.0 0.00 0.17 0.11 78 1013.0
20260830201756 86 57 4.0 8.0 0.00 0.17 0.11 79 1013.1
20260830201004 86 132 3.0 8.0 0.00 0.17 0.11 79 1013.1
20260830200502 86 119 1.0 7.0 0.00 0.17 0.11 80 1013.1
20260830200010 86 76 1.0 5.0 0.00 0.25 0.11 80 1013.0
20260830200005 86 76 2.0 6.0 0.00 0.18 0.11 80 1013.1
20260830195503 86 78 2.0 6.0 0.00 0.19 0.11 79 1013.1
20260830195253 86 28 2.0 7.0 0.00 0.21 0.11 81 1013.1
20260830194754 86 82 2.0 7.0 0.00 0.25 0.11 80 1013.1
20260830194004 85 108 2.0 6.0 0.00 0.25 0.11 80 1013.1
20260830193503 86 92 1.0 3.0 0.00 0.25 0.11 80 1013.1
20260830193016 85 355 1.0 7.0 0.00 0.25 0.11 81 1013.4
20260830193005 85 355 2.0 7.0 0.00 0.25 0.11 81 1013.5
20260830192752 85 131 2.0 7.0 0.00 0.25 0.11 80 1013.5
20260830192004 86 136 0.0 2.0 0.00 0.25 0.11 80 1013.5
20260830191517 85 153 0.0 3.0 0.00 0.25 0.11 81 1013.0
20260830191506 85 153 1.0 3.0 0.00 0.25 0.11 81 1013.2
20260830191300 84 121 2.0 5.0 0.00 0.25 0.11 80 1013.2
20260830190505 84 69 2.0 5.0 0.00 0.25 0.11 81 1013.2
20260830190254 85 122 1.0 4.0 0.00 0.25 0.11 81 1013.4
20260830185503 84 114 2.0 5.0 0.00 0.25 0.11 83 1013.4
20260830185002 84 119 2.0 9.0 0.00 0.25 0.11 83 1013.4
20260830184508 84 13 2.0 9.0 0.00 0.25 0.11 84 1013.5
20260830184502 84 13 2.0 9.0 0.00 0.25 0.11 84 1013.7
20260830184002 84 76 2.0 4.0 0.00 0.25 0.11 83 1013.7
20260830183504 84 49 2.0 5.0 0.00 0.25 0.11 83 1013.7
20260830183007 84 30 1.0 5.0 0.00 0.25 0.11 83 1013.9
20260830183002 84 30 2.0 5.0 0.00 0.25 0.11 83 1014.0
20260830182504 84 5 2.0 5.0 0.00 0.25 0.11 84 1014.0
20260830182248 83 336 2.0 5.0 0.00 0.25 0.11 85 1014.0
20260830181508 82 71 1.0 8.0 0.00 0.25 0.11 85 1014.1
20260830181503 82 69 2.0 8.0 0.00 0.25 0.11 85 1014.2
20260830181004 82 71 3.0 8.0 0.00 0.25 0.11 85 1014.2
20260830180503 82 76 3.0 7.0 0.00 0.25 0.11 87 1014.2
20260830180250 81 327 2.0 8.0 0.00 0.25 0.11 87 1014.6
20260830175503 81 68 3.0 8.0 0.00 0.25 0.11 87 1014.6
20260830175002 81 30 3.0 11.0 0.00 0.25 0.11 88 1014.6
20260830174512 80 309 1.0 11.0 0.00 0.25 0.11 87 1014.5
20260830174503 81 333 3.0 11.0 0.00 0.25 0.11 87 1014.7
20260830174003 80 59 3.0 7.0 0.00 0.25 0.11 87 1014.7
20260830173505 80 20 3.0 8.0 0.00 0.25 0.11 88 1014.7
20260830173008 80 347 2.0 8.0 0.00 0.25 0.11 88 1014.7
20260830173002 80 347 3.0 8.0 0.00 0.25 0.11 88 1014.9
20260830172503 80 58 3.0 8.0 0.00 0.25 0.11 89 1014.9
20260830172003 80 302 3.0 8.0 0.00 0.25 0.11 88 1014.9
20260830171507 80 44 3.0 7.0 0.00 0.25 0.11 89 1014.6
20260830171502 80 44 3.0 7.0 0.00 0.25 0.11 89 1014.7
20260830171002 80 339 3.0 7.0 0.01 0.25 0.11 90 1014.7
20260830170502 80 323 2.0 8.0 0.01 0.25 0.11 91 1014.7
20260830170011 79 20 2.0 8.0 0.01 0.25 0.11 91 1015.3
20260830170001 79 20 3.0 8.0 0.01 0.25 0.11 91 1015.5
20260830165504 79 41 3.0 8.0 0.01 0.25 0.11 91 1015.5
20260830164959 79 70 2.0 8.0 0.01 0.25 0.11 92 1015.5
20260830164502 78 36 1.0 6.0 0.01 0.25 0.11 92 1015.1
20260830164442 79 340 2.0 6.0 0.01 0.25 0.11 92 1015.3
20260830163932 79 331 2.0 6.0 0.02 0.25 0.11 92 1015.3
20260830163520 78 13 1.0 6.0 0.06 0.25 0.11 92 1015.6
20260830163502 78 9 2.0 6.0 0.04 0.25 0.11 92 1015.3
20260830163145 78 24 2.0 6.0 0.06 0.25 0.11 92 1015.5
20260830162429 78 37 1.0 4.0 0.08 0.25 0.11 92 1015.6
20260830161930 78 346 1.0 6.0 0.11 0.25 0.11 92 1015.6
20260830161714 77 51 2.0 6.0 0.11 0.25 0.11 92 1015.7
20260830161644 77 85 0.0 6.0 0.11 0.25 0.11 92 1015.6
20260830160930 78 34 2.0 6.0 0.10 0.24 0.10 91 1015.7
20260830160431 78 55 2.0 6.0 0.10 0.24 0.10 91 1015.7
20260830160220 78 61 1.0 5.0 0.10 0.24 0.10 91 1015.3
20260830160156 78 76 1.0 5.0 0.10 0.24 0.10 91 1015.1
20260830155431 78 338 1.0 4.0 0.10 0.24 0.10 91 1015.3
20260830155220 78 323 1.0 5.0 0.10 0.24 0.10 91 1015.3
20260830154513 78 33 1.0 7.0 0.10 0.24 0.10 90 1015.1
20260830154430 78 10 3.0 15.0 0.10 0.24 0.10 90 1015.2
20260830153930 79 69 7.0 15.0 0.09 0.23 0.09 89 1015.2
20260830153722 80 90 9.0 18.0 0.07 0.21 0.07 88 1015.2
20260830153003 80 126 8.0 18.0 0.05 0.19 0.05 88 1015.0
20260830152929 80 88 8.0 18.0 0.05 0.19 0.05 87 1015.2
20260830152429 82 101 4.0 15.0 0.03 0.17 0.02 86 1015.2
20260830152222 83 133 2.0 8.0 0.00 0.14 0.00 88 1015.2
20260830151503 83 105 2.0 8.0 0.00 0.14 0.00 87 1014.5
20260830151429 83 77 3.0 8.0 0.00 0.14 0.00 87 1014.7
20260830150930 84 75 3.0 8.0 0.00 0.14 0.00 86 1014.7
20260830150429 85 85 1.0 8.0 0.00 0.14 0.00 84 1014.7
20260830150005 86 118 0.0 2.0 0.00 0.14 0.00 84 1014.5
20260830145931 86 118 0.0 3.0 0.00 0.14 0.00 83 1014.6
20260830145429 86 196 1.0 3.0 0.00 0.14 0.00 84 1014.6
20260830144928 86 192 1.0 3.0 0.00 0.14 0.00 84 1014.6
20260830144504 86 246 0.0 2.0 0.00 0.14 0.00 84 1014.4
20260830144430 86 238 0.0 2.0 0.00 0.14 0.00 84 1014.5
20260830143929 86 96 1.0 2.0 0.00 0.14 0.00 83 1014.5
20260830143430 87 217 1.0 4.0 0.00 0.14 0.00 83 1014.5
20260830143106 86 211 0.0 4.0 0.00 0.14 0.00 83 1014.5
20260830142926 87 213 1.0 4.0 0.00 0.14 0.00 82 1014.7
20260830142412 87 208 1.0 5.0 0.00 0.14 0.00 84 1014.7
20260830141908 87 223 2.0 7.0 0.00 0.14 0.00 85 1014.7
20260830141543 86 234 1.0 7.0 0.00 0.14 0.00 86 1014.5
20260830141408 86 227 2.0 7.0 0.00 0.14 0.00 86 1014.7
20260830140908 85 126 1.0 6.0 0.00 0.14 0.00 86 1014.7
20260830140405 85 227 1.0 6.0 0.00 0.14 0.00 87 1014.7
20260830140033 84 217 1.0 6.0 0.00 0.14 0.00 87 1014.5
20260830135904 84 199 1.0 6.0 0.00 0.14 0.00 87 1014.7
20260830135404 84 103 0.0 2.0 0.00 0.14 0.00 88 1014.7
20260830134904 84 131 0.0 1.0 0.00 0.14 0.00 89 1014.7
20260830134654 83 180 0.0 1.0 0.00 0.14 0.00 90 1014.7
20260830134618 83 119 0.0 1.0 0.00 0.14 0.00 90 1014.5
20260830133940 83 92 0.0 1.0 0.00 0.14 0.00 91 1014.7
20260830133930 83 92 0.0 1.0 0.00 0.14 0.00 90 1014.7
20260830133150 82 120 0.0 2.0 0.00 0.14 0.00 92 1014.6
20260830133116 82 92 0.0 1.0 0.00 0.14 0.00 91 1014.5
20260830132404 82 115 0.0 2.0 0.00 0.14 0.00 92 1014.6
20260830131903 82 88 0.0 0.0 0.00 0.14 0.00 93 1014.6
20260830131504 81 70 0.0 0.0 0.00 0.14 0.00 93 1014.1
20260830131356 81 69 0.0 0.0 0.00 0.14 0.00 93 1014.2
20260830130843 81 70 0.0 1.0 0.00 0.14 0.00 94 1014.2
20260830130338 80 304 0.0 1.0 0.00 0.14 0.00 94 1014.2
20260830130108 80 304 0.0 1.0 0.00 0.14 0.00 94 1014.0
20260830125838 80 304 0.0 1.0 0.00 0.14 0.00 94 1014.1
20260830125339 80 303 0.0 2.0 0.00 0.14 0.00 94 1014.1
20260830124840 79 303 0.0 2.0 0.00 0.14 0.00 94 1014.1
20260830124532 78 303 0.0 1.0 0.00 0.14 0.00 94 1014.0
20260830124338 79 303 0.0 1.0 0.00 0.14 0.00 94 1014.1
20260830123838 79 114 0.0 1.0 0.00 0.14 0.00 94 1014.1
20260830123337 78 116 0.0 1.0 0.00 0.14 0.00 94 1014.1
20260830123024 78 116 0.0 1.0 0.00 0.14 0.00 94 1014.0
20260830122835 78 116 0.0 1.0 0.00 0.14 0.00 94 1014.1
20260830122332 78 116 0.0 0.0 0.00 0.14 0.00 94 1014.1
20260830122206 78 116 0.0 1.0 0.00 0.14 0.00 94 1014.0
20260830122202 78 116 0.0 0.0 0.00 0.14 0.00 94 1014.1
20260830121547 77 116 0.0 0.0 0.00 0.14 0.00 94 1013.9
20260830120831 78 116 0.0 1.0 0.00 0.14 0.00 94 1014.0
20260830120628 77 116 0.0 0.0 0.00 0.14 0.00 94 1014.0
20260830120055 77 116 0.0 0.0 0.00 0.14 0.00 94 1013.6
20260830115833 77 116 0.0 0.0 0.00 0.14 0.00 94 1013.7
20260830115332 77 116 0.0 0.0 0.00 0.14 0.00 94 1013.7
20260830114832 77 116 0.0 0.0 0.00 0.14 0.00 94 1013.7
20260830114604 76 116 0.0 0.0 0.00 0.14 0.00 94 1013.4
20260830114329 77 116 0.0 0.0 0.00 0.14 0.00 94 1013.6
20260830113829 77 116 0.0 0.0 0.00 0.14 0.00 94 1013.6
20260830113330 77 116 0.0 0.0 0.00 0.14 0.00 94 1013.6
20260830113031 76 116 0.0 0.0 0.00 0.14 0.00 94 1013.0
20260830112830 77 116 0.0 1.0 0.00 0.14 0.00 94 1013.2
20260830112331 76 116 0.0 1.0 0.00 0.14 0.00 93 1013.2
20260830111829 76 116 0.0 0.0 0.00 0.14 0.00 93 1013.2
20260830111525 76 116 0.0 0.0 0.00 0.14 0.00 93 1012.9
20260830111330 76 116 0.0 0.0 0.00 0.14 0.00 93 1013.1
20260830110831 76 116 0.0 0.0 0.00 0.14 0.00 93 1013.1
20260830110329 76 116 0.0 0.0 0.00 0.14 0.00 93 1013.1
20260830110020 76 116 0.0 0.0 0.00 0.15 0.00 93 1012.7
20260830105830 76 116 0.0 0.0 0.00 0.14 0.00 93 1012.8
20260830105330 76 116 0.0 1.0 0.00 0.14 0.00 93 1012.8
20260830104829 76 116 0.0 1.0 0.00 0.14 0.00 93 1012.8
20260830104503 76 116 0.0 1.0 0.00 0.15 0.00 93 1012.4
20260830104330 76 116 0.0 1.0 0.00 0.15 0.00 93 1012.6
20260830103831 76 116 0.0 1.0 0.00 0.15 0.00 93 1012.6
20260830103329 77 116 0.0 1.0 0.00 0.15 0.00 93 1012.6
20260830103123 77 116 0.0 1.0 0.00 0.15 0.00 93 1012.4
20260830103048 76 116 0.0 0.0 0.00 0.15 0.00 93 1012.3
20260830102330 77 116 0.0 1.0 0.00 0.15 0.00 93 1012.4
20260830101828 77 116 0.0 0.0 0.00 0.15 0.00 93 1012.4
20260830101541 76 116 0.0 0.0 0.00 0.15 0.00 93 1012.3
20260830101330 77 116 0.0 1.0 0.00 0.15 0.00 93 1012.4
20260830100832 77 116 0.0 1.0 0.00 0.15 0.00 93 1012.4
20260830100331 77 116 0.0 0.0 0.00 0.15 0.00 93 1012.4
20260830100020 76 116 0.0 0.0 0.00 0.15 0.00 93 1012.1
20260830095832 77 116 0.0 0.0 0.00 0.15 0.00 93 1012.2
20260830095330 77 116 0.0 0.0 0.00 0.15 0.00 93 1012.2
20260830094828 77 116 0.0 0.0 0.00 0.15 0.00 93 1012.2
20260830094504 76 116 0.0 0.0 0.00 0.15 0.00 93 1012.0
20260830094331 77 116 0.0 0.0 0.00 0.15 0.00 92 1012.1
20260830093829 77 116 0.0 0.0 0.00 0.15 0.00 93 1012.1
20260830093330 77 116 0.0 0.0 0.00 0.15 0.00 92 1012.1
20260830093052 77 116 0.0 0.0 0.00 0.15 0.00 92 1012.0
20260830092829 77 116 0.0 0.0 0.00 0.15 0.00 92 1012.1
20260830092330 77 116 0.0 0.0 0.00 0.15 0.00 92 1012.1
20260830091833 77 116 0.0 0.0 0.00 0.15 0.00 92 1012.1
20260830091616 78 116 0.0 0.0 0.00 0.15 0.00 92 1012.2
20260830091546 77 116 0.0 0.0 0.00 0.15 0.00 92 1012.1
20260830090833 78 116 0.0 0.0 0.00 0.15 0.00 92 1012.2
20260830090616 78 116 0.0 0.0 0.00 0.15 0.00 92 1012.2
20260830090032 77 116 0.0 0.0 0.00 0.15 0.00 92 1012.3
20260830085832 78 116 0.0 0.0 0.00 0.15 0.00 92 1012.5
20260830085330 78 116 0.0 0.0 0.00 0.15 0.00 92 1012.5
20260830084831 78 116 0.0 0.0 0.00 0.15 0.00 92 1012.5
20260830084532 78 116 0.0 0.0 0.00 0.15 0.00 92 1012.4
20260830084332 78 116 0.0 0.0 0.00 0.15 0.00 92 1012.6
20260830083830 78 116 0.0 0.0 0.00 0.15 0.00 92 1012.6
20260830083329 78 116 0.0 0.0 0.00 0.15 0.00 92 1012.6
20260830083015 78 116 0.0 0.0 0.00 0.15 0.00 92 1012.4
20260830082829 78 116 0.0 0.0 0.00 0.15 0.00 91 1012.6
20260830082330 78 116 0.0 1.0 0.00 0.15 0.00 91 1012.6
20260830081829 78 116 0.0 1.0 0.00 0.15 0.00 91 1012.6
20260830081503 78 116 0.0 1.0 0.00 0.15 0.00 91 1012.4
20260830081331 79 116 0.0 1.0 0.00 0.15 0.00 91 1012.6
20260830080831 79 116 0.0 1.0 0.00 0.15 0.00 91 1012.6
20260830080330 79 116 0.0 1.0 0.00 0.15 0.00 90 1012.6
20260830080005 79 116 0.0 1.0 0.00 0.15 0.00 91 1012.5
20260830075829 79 116 0.0 2.0 0.00 0.15 0.00 90 1012.6
20260830075328 80 116 1.0 2.0 0.00 0.15 0.00 91 1012.6
20260830074829 80 101 1.0 2.0 0.00 0.15 0.00 91 1012.6
20260830074504 79 111 0.0 2.0 0.00 0.15 0.00 91 1012.8
20260830074330 80 117 1.0 2.0 0.00 0.15 0.00 91 1012.9
20260830073828 80 112 0.0 1.0 0.00 0.15 0.00 91 1012.9
20260830073329 80 108 1.0 3.0 0.00 0.15 0.00 90 1012.9
20260830073003 79 108 0.0 3.0 0.00 0.15 0.00 91 1012.8
20260830072829 80 98 2.0 6.0 0.00 0.15 0.00 90 1012.9
20260830072330 80 107 3.0 6.0 0.00 0.15 0.00 90 1012.9
20260830071828 80 125 3.0 6.0 0.00 0.15 0.00 90 1012.9
20260830071508 79 105 2.0 6.0 0.00 0.15 0.00 90 1012.9
20260830071325 80 106 3.0 6.0 0.00 0.15 0.00 90 1013.1
20260830070825 80 130 3.0 6.0 0.00 0.15 0.00 90 1013.1
20260830070612 80 109 3.0 5.0 0.00 0.15 0.00 90 1013.1
20260830070013 79 119 3.0 5.0 0.00 0.15 0.00 90 1013.0
20260830065822 80 126 3.0 6.0 0.00 0.15 0.00 90 1013.1
20260830065324 80 111 3.0 6.0 0.00 0.15 0.00 90 1013.1
20260830064822 80 109 3.0 7.0 0.00 0.15 0.00 90 1013.1
20260830064504 79 107 2.0 7.0 0.00 0.15 0.00 90 1013.1
20260830064321 80 119 4.0 8.0 0.00 0.15 0.00 90 1013.3
20260830063819 80 122 4.0 8.0 0.00 0.15 0.00 90 1013.3
20260830063611 80 124 4.0 8.0 0.00 0.15 0.00 90 1013.3
20260830063004 79 107 5.0 8.0 0.00 0.15 0.00 91 1013.2
20260830062818 79 129 3.0 7.0 0.00 0.15 0.00 91 1013.4
20260830062315 79 103 2.0 5.0 0.00 0.15 0.00 91 1013.4
20260830062107 79 101 2.0 6.0 0.00 0.15 0.00 91 1013.4
20260830061603 79 109 2.0 6.0 0.00 0.15 0.00 91 1013.4
20260830061535 79 119 1.0 6.0 0.00 0.15 0.00 91 1013.2
20260830061104 79 96 2.0 4.0 0.00 0.15 0.00 91 1013.4
20260830060316 79 111 2.0 6.0 0.00 0.15 0.00 91 1013.4
20260830060034 79 105 2.0 5.0 0.00 0.15 0.00 91 1013.5
20260830055815 79 111 3.0 6.0 0.00 0.15 0.00 90 1013.6
20260830055315 79 98 3.0 6.0 0.00 0.15 0.00 90 1013.6
20260830054815 79 117 3.0 6.0 0.00 0.15 0.00 91 1013.6
20260830054531 79 94 3.0 6.0 0.00 0.15 0.00 91 1013.5
20260830054316 79 97 3.0 6.0 0.00 0.15 0.00 91 1013.6